Time,B instrument,Bx,By,Bz,sigma B,Ion instrument,Status,Tp_par,Tp_perp,carrot,r_sun,clat,clong,earth_he_angle,n_p,vp_x,vp_y,vp_z,vth_p_par,vth_p_perp
1980-02-04 00:27:55,-1,nan,nan,nan,nan,1,3,nan,nan,1691,0.95338327,1.5057993,147.0564,289.45874,nan,431.348,-27.8665,9.1583,nan,nan
1980-02-04 01:11:07,-1,nan,nan,nan,nan,1,3,nan,nan,1691,0.9534806,1.5030012,146.65356,289.45044,nan,429.515,-9.53764,7.58326,nan,nan
1980-02-04 01:54:19,-1,nan,nan,nan,nan,1,3,nan,nan,1691,0.95357567,1.500268,146.25098,289.44238,nan,432.533,-5.02978,-12.2563,nan,nan
1980-02-04 02:37:31,-1,nan,nan,nan,nan,1,3,nan,nan,1691,0.95367056,1.4975338,145.84839,289.43433,nan,425.601,7.0537,-25.652,nan,nan
1980-02-04 03:20:43,-1,nan,nan,nan,nan,1,3,nan,nan,1691,0.95376527,1.4948006,145.4458,289.42627,nan,427.058,29.2626,-9.06299,nan,nan
1980-02-04 04:03:55,-1,nan,nan,nan,nan,1,3,nan,nan,1691,0.95385987,1.4920673,145.04321,289.41821,nan,429.061,14.3634,-33.3344,nan,nan
1980-02-04 04:47:07,-1,nan,nan,nan,nan,1,3,nan,nan,1691,0.95395648,1.4892702,144.64063,289.41016,nan,426.473,9.00295,0.915894,nan,nan
1980-02-04 05:30:19,-1,nan,nan,nan,nan,1,3,nan,nan,1691,0.95405078,1.4865379,144.23779,289.40186,nan,451.222,10.9778,23.8434,nan,nan
1980-02-04 06:13:31,-1,nan,nan,nan,nan,1,3,nan,nan,1691,0.9541449,1.4838057,143.83521,289.3938,nan,431.17,4.55614,-9.51298,nan,nan
1980-02-04 06:56:43,-1,nan,nan,nan,nan,1,3,nan,nan,1691,0.95423889,1.4810734,143.42871,289.38574,nan,423.979,2.20936,-7.03486,nan,nan
1980-02-04 07:39:55,-1,nan,nan,nan,nan,1,3,nan,nan,1691,0.95433271,1.4783421,143.02612,289.37769,nan,441.105,-3.47308,1.08665,nan,nan
1980-02-04 08:23:07,-1,nan,nan,nan,nan,1,3,nan,nan,1691,0.95442855,1.4755478,142.62329,289.36938,nan,456.234,11.3036,22.4314,nan,nan
1980-02-04 10:06:48,-1,nan,nan,nan,nan,1,4,nan,nan,1691,0.95465249,1.4690065,141.65845,289.34985,nan,nan,nan,nan,nan,nan
1980-02-04 10:07:29,-1,nan,nan,nan,nan,1,4,nan,nan,1691,0.95465463,1.4689426,141.65039,289.34961,nan,nan,nan,nan,nan,nan
1980-02-04 10:07:47,1,-3.63333,2.70667,-1.83333,0.859302,1,1,60539.7,162742.0,1691,0.95465463,1.4689426,141.64648,289.34961,4.21232,441.71,10.0124,-4.91539,31.6139,51.8332
1980-02-04 10:08:27,1,-3.14118,2.23529,-1.70588,0.704165,1,1,102639.0,166074.0,1691,0.95465678,1.4688797,141.64233,289.34937,4.7885,441.153,-9.5072,-16.0314,41.1637,52.3611
1980-02-04 10:10:15,1,-2.66,3.1,-2.76,0.49207,1,1,89238.5,135511.0,1691,0.95466113,1.4687529,141.62256,289.34912,4.10902,444.872,-15.1238,-22.0571,38.3826,47.2982
1980-02-04 10:10:56,1,-2.27647,3.43529,-2.96471,0.470809,1,1,64292.7,149973.0,1691,0.95466113,1.4687529,141.61865,289.34912,4.23393,449.51,-8.33973,-23.265,32.5791,49.7581
1980-02-04 10:11:36,1,-3.27647,4.22941,-1.48235,2.02035,1,1,138641.0,137652.0,1691,0.95466328,1.468689,141.6106,289.34888,4.5172,463.037,-7.98368,-25.5017,47.8415,47.6704
1980-02-04 10:11:55,1,-4.54118,3.43529,-0.970588,1.58254,1,1,81620.5,159695.0,1691,0.95466328,1.468689,141.6106,289.34888,5.05901,418.166,-3.2884,9.45856,36.7077,51.3457
1980-02-04 10:12:36,1,-3.35333,2.90667,-2.38,1.97435,1,1,108314.0,176682.0,1691,0.95466548,1.468626,141.60254,289.34863,4.99846,445.522,-14.8898,-19.6317,42.2864,54.0075
1980-02-04 10:13:16,1,-2.6,1.5375,-3.4,0.556636,1,1,61545.9,160766.0,1691,0.95466763,1.4685621,141.59473,289.34863,4.16191,454.716,-15.7887,-29.0579,31.8755,51.5175
1980-02-04 10:13:57,1,-2.10588,0.605882,-3.55294,0.755419,1,1,54004.5,160502.0,1691,0.95466763,1.4685621,141.59082,289.34863,3.83249,448.961,-26.6031,-28.855,29.8588,51.4752
1980-02-04 10:14:37,1,-1.3625,-0.125,-3.6625,0.853852,1,1,55441.1,189941.0,1691,0.95466977,1.4684982,141.58276,289.34839,4.50261,464.274,-32.0015,-33.8549,30.2534,55.9973
1980-02-04 10:15:58,1,-1.45294,-0.876471,-3.55294,0.525541,1,1,61864.1,163414.0,1691,0.95467198,1.4684353,141.5708,289.34814,4.13839,463.66,-32.366,-32.5918,31.9578,51.94
1980-02-04 10:16:39,1,-1.5,-1.2,-3.44118,0.734093,1,1,41464.9,149452.0,1691,0.95467412,1.4683714,141.56274,289.3479,4.26492,458.151,-34.5135,-38.0606,26.1636,49.6716
1980-02-04 10:17:19,1,-1.1875,-3.41875,-2.2375,0.92936,1,1,93152.3,153950.0,1691,0.95467627,1.4683084,141.55884,289.3479,3.89465,463.58,-61.7447,-19.0611,39.2152,50.4137
1980-02-04 10:18:40,1,-0.158824,-0.447059,-4.02941,0.977958,1,1,49770.1,189154.0,1691,0.95467848,1.4682446,141.54688,289.34766,5.15577,473.504,-34.5369,-35.456,28.6644,55.8812
1980-02-04 10:19:21,1,0.833333,-0.994444,-4.02778,0.81191,1,1,51858.1,152790.0,1691,0.95468062,1.4681807,141.53882,289.34741,4.42018,481.242,-49.7198,-34.2558,29.2595,50.2234
1980-02-04 10:20:01,1,0.466667,-0.827778,-3.97222,1.02503,1,1,45363.4,194259.0,1691,0.95468283,1.4681177,141.53467,289.34717,5.13269,475.816,-52.315,-34.0575,27.366,56.6302
1980-02-04 10:20:42,-1,nan,nan,nan,nan,1,-3,nan,nan,1691,0.95468283,1.4681177,141.52686,289.34717,nan,480.619,-23.0419,-34.0099,nan,nan
1980-02-04 10:21:22,1,1.33529,0.258824,-3.97647,0.705049,1,1,50850.9,170436.0,1691,0.95468497,1.4680538,141.5188,289.34692,4.83834,483.089,-36.5652,-35.846,28.9739,53.0443
1980-02-04 10:22:03,1,1.7,1.52941,-3.85294,1.5235,1,1,68870.4,138430.0,1691,0.95468712,1.4679909,141.51489,289.34692,4.61609,479.668,-36.0807,-36.8234,33.719,47.805
1980-02-04 10:22:43,1,0.9,0.211765,-3.56471,1.96374,1,1,58095.7,153471.0,1691,0.95468712,1.4679909,141.50708,289.34692,4.32145,490.563,-10.8206,-34.4757,30.9692,50.3351
1980-02-04 10:23:24,1,-0.35,-1.65,-3.37222,1.21715,1,1,46725.0,176374.0,1691,0.95468932,1.467927,141.50293,289.34668,4.41034,470.654,-59.0139,-32.7967,27.7736,53.9604
1980-02-04 10:24:04,1,-0.355556,-0.85,-3.65556,1.24842,1,1,63732.2,197127.0,1691,0.95469147,1.467864,141.49487,289.34644,5.04655,475.516,-38.365,-37.2402,32.4367,57.0468
1980-02-04 10:24:45,1,-0.629412,-0.241176,-3.92353,1.52792,1,1,61247.9,201433.0,1691,0.95469147,1.467864,141.49097,289.34644,5.12608,470.872,-37.2847,-37.3681,31.7983,57.6664
1980-02-04 10:25:25,1,-1.05294,-0.905882,-3.79412,0.946858,1,1,47458.8,155909.0,1691,0.95469362,1.4678001,141.48291,289.34619,4.60726,461.075,-39.5562,-35.907,27.9909,50.7334
1980-02-04 10:26:06,1,-0.683333,-1.86667,-3.74444,0.800328,1,1,54800.0,178137.0,1691,0.95469582,1.4677362,141.4751,289.34619,4.40749,471.584,-59.9458,-31.1993,30.0779,54.2294
1980-02-04 10:26:46,1,-0.733333,-2.15,-3.57778,0.847746,1,1,59948.4,142800.0,1691,0.95469582,1.4677362,141.47119,289.34619,4.45734,468.465,-47.9728,-35.1174,31.4591,48.5536
1980-02-04 10:27:27,1,2.23529,-3.32941,-2.14118,2.04069,1,1,91700.9,141294.0,1691,0.95469797,1.4676733,141.46313,289.34595,4.32173,480.345,-70.3356,-32.1688,38.9085,48.2969
1980-02-04 10:28:11,1,1.58235,-2.72941,-2.94118,0.619353,1,1,107340.0,192951.0,1691,0.95470011,1.4676094,141.45508,289.3457,4.74912,487.542,-99.6619,-32.7687,42.0958,56.4392
1980-02-04 10:28:51,1,1.55882,-1.67059,-3.36471,0.959635,1,1,62758.9,194596.0,1691,0.95470011,1.4676094,141.45117,289.3457,4.34965,491.89,-61.5588,-40.8565,32.1881,56.6793
1980-02-04 10:29:32,1,-1.00556,-0.383333,-3.75,1.03117,1,1,71883.4,192597.0,1691,0.95470232,1.4675465,141.44312,289.34546,4.95883,475.47,-47.8526,-40.7227,34.4487,56.3875
1980-02-04 10:30:49,1,0.36,7.6,5.28,1.64924,1,1,529245.0,185973.0,1691,0.95470446,1.4674826,141.4314,289.34546,8.1963,481.144,69.6232,58.2633,93.473,55.4093
1980-02-04 10:31:30,1,0.5,7.27222,7.29444,0.932308,1,1,86887.9,167566.0,1691,0.95470661,1.4674187,141.42725,289.34521,4.1534,479.945,25.4383,66.8444,37.8737,52.5958
1980-02-04 10:32:10,1,-0.164706,7.44706,6.44118,1.48883,1,1,83588.0,219031.0,1691,0.95470881,1.4673557,141.41919,289.34497,4.57806,474.98,25.2863,62.2398,37.1475,60.1327
1980-02-04 10:34:52,1,-2.94118,6.99412,4.21765,0.741036,1,1,100816.0,195675.0,1691,0.95471311,1.4672289,141.39526,289.34448,4.7558,456.925,36.5214,42.6555,40.7964,56.8362
1980-02-04 10:35:33,-1,nan,nan,nan,nan,1,4,nan,nan,1691,0.95471531,1.467165,141.38745,289.34448,nan,nan,nan,nan,nan,nan
1980-02-04 10:36:13,1,-4.06875,6.2375,1.64375,1.97755,1,1,104375.0,143085.0,1691,0.95471746,1.4671021,141.3833,289.34424,4.10875,433.298,23.0404,14.7985,41.5104,48.6021
1980-02-04 10:36:54,1,-3.96471,4.82941,-0.923529,1.61982,1,1,61294.8,143849.0,1691,0.95471746,1.4671021,141.37549,289.34424,4.29444,433.05,12.479,-11.0224,31.8105,48.7317
1980-02-04 10:37:34,-1,nan,nan,nan,nan,1,-3,nan,nan,1691,0.9547196,1.4670382,141.37134,289.34399,nan,459.099,-38.6079,-35.8918,nan,nan
1980-02-04 10:38:15,-1,nan,nan,nan,nan,1,4,nan,nan,1691,0.95472181,1.4669743,141.36328,289.34375,nan,nan,nan,nan,nan,nan
1980-02-04 10:38:55,1,-3.06875,7.7875,4.95,0.472485,1,1,105006.0,182358.0,1691,0.95472181,1.4669743,141.35547,289.34375,5.33428,448.83,34.7378,42.2294,41.6356,54.8682
1980-02-04 10:39:36,1,-4.01111,7.10556,2.76111,1.67548,1,1,80567.5,132898.0,1691,0.95472395,1.4669113,141.35156,289.34375,4.39365,440.958,31.5902,24.3338,36.4702,46.8401
1980-02-04 11:15:57,-1,nan,nan,nan,nan,1,4,nan,nan,1691,0.95480192,1.4646254,141.0127,289.33691,nan,nan,nan,nan,nan,nan
1980-02-04 11:16:38,1,-1.42222,-6.33889,-0.0666667,0.501879,1,1,109253.0,176181.0,1691,0.95480406,1.4645615,141.00464,289.33667,6.27321,469.328,-71.4404,-2.02062,42.4693,53.9308
1980-02-04 11:17:18,1,-1.56667,-6.8,1.39444,0.796152,1,1,172883.0,161762.0,1691,0.95480621,1.4644985,141.00049,289.33643,6.17639,473.257,-75.4931,4.4783,53.4238,51.6769
1980-02-04 11:17:59,1,-1.55882,-7.07059,2.14706,0.776827,1,1,100405.0,179000.0,1691,0.95480621,1.4644985,140.99268,289.33643,6.45195,471.664,-76.7506,8.63196,40.7132,54.3606
1980-02-04 11:18:40,1,-1.55,-6.97778,2.11111,0.745128,1,1,166690.0,148422.0,1691,0.95480841,1.4644346,140.98462,289.33618,6.23198,467.484,-78.058,15.1341,52.4582,49.5001
1980-02-04 11:19:21,1,-1.41765,-6.90588,2.47059,0.50465,1,1,99227.7,185271.0,1691,0.95481056,1.4643717,140.98071,289.33618,6.37533,471.475,-75.5853,4.46947,40.4738,55.3047
1980-02-04 11:20:01,1,-1.54444,-6.79444,2.35556,0.828598,1,1,151940.0,172285.0,1691,0.95481271,1.4643078,140.97266,289.33594,6.36627,467.266,-79.7337,21.108,50.0834,53.3312
1980-02-04 11:20:42,1,-2.25294,-5.91176,-0.258824,0.441999,1,1,102168.0,148615.0,1691,0.95481271,1.4643078,140.96875,289.33594,5.38295,462.782,-67.6073,-2.83998,41.0691,49.5325
1980-02-04 11:21:22,1,-1.77059,-6.24706,0.494118,0.69735,1,1,162817.0,179459.0,1691,0.95481485,1.4642448,140.96069,289.33569,6.05278,466.964,-73.4904,0.621536,51.8451,54.4302
1980-02-04 11:22:03,1,-1.78824,-6.46471,1.50588,0.520513,1,1,95442.1,182085.0,1691,0.95481706,1.4641809,140.95264,289.33545,5.48013,466.166,-73.8006,7.02899,39.6943,54.8271
1980-02-04 11:22:43,1,-1.81765,-6.45294,1.41176,0.641905,1,1,163060.0,206349.0,1691,0.95481706,1.4641809,140.94873,289.33545,6.74237,470.367,-71.7743,8.08415,51.8837,58.3659
1980-02-04 11:23:24,1,-2.33333,-6.19444,0.677778,0.681524,1,1,98755.7,194216.0,1691,0.9548192,1.464118,140.94092,289.33545,6.3444,462.709,-73.0715,6.44021,40.3775,56.624
1980-02-04 11:24:04,1,-2.45294,-4.95294,-1.59412,0.790164,1,1,98558.3,163417.0,1691,0.95482135,1.4640541,140.93677,289.33521,5.39948,465.23,-71.1475,-6.85795,40.3371,51.9405
1980-02-04 11:24:45,1,-1.84118,-6.06471,-0.852941,0.462878,1,1,96678.2,143191.0,1691,0.95482135,1.4640541,140.92896,289.33521,4.81028,467.253,-71.7347,-1.93479,39.9505,48.6202
1980-02-04 11:25:25,1,-1.77778,-6.31667,-0.116667,0.540633,1,1,120586.0,158785.0,1691,0.95482355,1.4639902,140.9248,289.33496,5.18967,468.756,-72.2426,-3.06979,44.6177,51.1992
1980-02-04 11:26:06,-1,nan,nan,nan,nan,1,4,nan,nan,1691,0.9548257,1.4639273,140.91675,289.33472,nan,nan,nan,nan,nan,nan
1980-02-04 11:26:46,-1,nan,nan,nan,nan,1,4,nan,nan,1691,0.9548257,1.4639273,140.90894,289.33472,nan,nan,nan,nan,nan,nan
1980-02-04 11:27:27,1,-1.61176,-5.21765,-0.788235,1.98079,1,1,88209.0,175924.0,1691,0.95482785,1.4638634,140.90479,289.33447,5.61564,472.991,-74.4456,10.6105,38.1605,53.8915
1980-02-04 11:28:07,1,-3.27222,-3.18889,-1.86667,2.09807,1,1,96404.2,163096.0,1691,0.95482999,1.4638004,140.89697,289.33447,4.84687,449.343,-40.7668,-23.4956,39.8938,51.8896
1980-02-04 11:28:48,1,-1.9125,-5.2125,-1.05,1.75704,1,1,80689.3,160575.0,1691,0.95482999,1.4638004,140.89307,289.33447,5.0949,475.411,-62.1544,-6.23743,36.4977,51.4869
1980-02-04 11:29:28,1,-1.53889,-5.84444,-0.516667,0.820306,1,1,117401.0,151996.0,1691,0.9548322,1.4637365,140.88501,289.33423,5.12912,467.334,-64.1379,-9.11999,44.0244,50.0926
1980-02-04 11:30:09,1,-0.576471,-6.31765,-0.641176,0.644272,1,1,31777.2,138166.0,1691,0.95483434,1.4636736,140.87695,289.33398,5.14763,476.286,-60.158,-6.14951,22.9042,47.7593
1980-02-04 11:30:49,1,0.335294,-6.00588,-1.32941,0.606025,1,1,111617.0,175016.0,1691,0.95483434,1.4636736,140.87305,289.33398,5.0993,479.029,-64.3456,-12.7629,42.9263,53.7523
1980-02-04 11:31:30,1,-3.0,-6.18235,3.34706,1.55388,1,1,116350.0,133139.0,1691,0.95483649,1.4636097,140.86499,289.33374,4.34574,445.309,-65.7684,22.6595,43.8269,46.8825
1980-02-04 11:32:10,1,-3.3125,-5.675,6.1375,1.51915,1,1,129529.0,187854.0,1691,0.95483869,1.4635458,140.86084,289.3335,5.81267,446.81,-59.9226,43.0989,46.2425,55.6888
1980-02-04 11:32:51,1,-2.1,-6.50588,4.83529,1.32239,1,1,127953.0,205157.0,1691,0.95483869,1.4635458,140.85303,289.3335,5.6356,451.049,-71.5141,28.2304,45.9604,58.1971
1980-02-04 11:33:31,1,-1.33333,-6.96111,1.98333,0.803734,1,1,159833.0,202251.0,1691,0.95484084,1.4634829,140.84912,289.3335,5.46172,463.1,-77.021,18.9035,51.3678,57.7834
1980-02-04 11:34:12,1,-1.18889,-7.20556,3.37778,1.08265,1,1,80037.8,178397.0,1691,0.95484298,1.463419,140.84106,289.33325,5.38164,466.242,-78.9453,26.8972,36.3501,54.269
1980-02-04 11:34:51,1,-0.2,-6.62222,0.0111111,0.823572,1,1,116615.0,212153.0,1691,0.95484298,1.463419,140.83325,289.33325,5.90081,476.237,-74.0115,-3.1195,43.8769,59.181
1980-02-04 11:35:32,1,-1.04211,-6.82632,0.815789,0.954447,1,1,95095.9,196129.0,1691,0.95484513,1.463356,140.8291,289.33301,4.28563,491.041,-157.398,94.3563,39.6222,56.9022
1980-02-04 11:36:12,1,-0.352941,-6.19412,-0.0647059,0.884859,1,1,129609.0,210765.0,1691,0.95484734,1.4632921,140.82104,289.33276,5.38592,474.371,-81.5372,-3.45762,46.2567,58.9871
1980-02-04 11:36:53,1,-1.93333,-4.98333,-1.40556,0.985857,1,1,94845.4,186946.0,1691,0.95484734,1.4632921,140.81714,289.33276,4.66158,462.556,-69.6895,-15.628,39.57,55.5541
1980-02-04 11:37:34,1,-0.0388889,-5.60556,-1.67222,1.16591,1,1,100961.0,155807.0,1691,0.95484948,1.4632292,140.80933,289.33276,4.95929,476.674,-61.6292,-17.9431,40.8258,50.7168
1980-02-04 11:38:15,1,-1.22353,-5.38824,-1.64118,1.0361,1,1,38555.3,135246.0,1691,0.95485163,1.4631653,140.80127,289.33252,4.23721,470.531,-57.3891,-18.8844,25.229,47.252
1980-02-04 11:38:55,1,-1.51667,-5.65556,-1.56111,0.731521,1,1,110344.0,162058.0,1691,0.95485163,1.4631653,140.79736,289.33252,5.84143,468.721,-53.7089,-18.1712,42.6808,51.7241
1980-02-04 11:41:32,1,0.606667,-5.71333,-1.48667,0.755601,1,1,100413.0,155547.0,1691,0.95484042,1.537003,140.6936,289.2522,5.07421,477.659,-67.2601,-9.77763,40.7149,50.6744
1980-02-04 11:42:53,1,-1.87333,-3.9,-2.35333,0.57658,1,1,140219.0,179905.0,1691,0.95486027,1.4629116,140.76147,289.33179,4.99797,485.453,-60.9063,-24.9623,48.1129,54.4979
1980-02-04 11:42:58,-1,nan,nan,nan,nan,1,4,nan,nan,1691,0.95486027,1.4629116,140.75757,289.33179,nan,nan,nan,nan,nan,nan
1980-02-04 11:43:39,1,-1.80625,-4.43125,-1.95,0.555864,1,1,90122.1,191139.0,1691,0.95486248,1.4628477,140.75342,289.33154,4.17501,467.737,-71.4264,-12.2902,38.5721,56.1736
1980-02-04 11:44:19,1,-1.38333,-4.73333,-2.23889,1.11872,1,1,137441.0,203492.0,1691,0.95486462,1.4627848,140.74536,289.3313,4.54914,468.903,-57.4447,-26.0722,47.6339,57.9605
1980-02-04 11:45:00,1,0.438889,-7.32222,1.77778,1.15241,1,1,93492.4,176258.0,1691,0.95486677,1.4627209,140.74121,289.33105,4.89423,487.182,-72.7292,19.5078,39.2867,53.9427
1980-02-04 11:45:40,1,1.11176,-7.39412,1.99412,0.780515,1,1,112853.0,194972.0,1691,0.95486677,1.4627209,140.7334,289.33105,5.95572,484.996,-67.7081,13.3436,43.1634,56.7341
1980-02-04 11:46:21,1,0.594444,-7.43889,1.05,0.505372,1,1,113862.0,184613.0,1691,0.95486897,1.462657,140.72949,289.33105,5.28572,476.465,-67.7167,1.50278,43.3557,55.2064
1980-02-04 11:47:01,1,0.872222,-7.32778,-0.00555556,1.00779,1,1,140581.0,216653.0,1691,0.95487112,1.462594,140.72144,289.33081,5.32826,472.706,-71.8256,0.357763,48.1749,59.8054
1980-02-04 11:47:42,1,0.8,-7.09412,-0.694118,0.682505,1,1,100746.0,214319.0,1691,0.95487112,1.462594,140.71362,289.33081,4.6837,475.898,-69.3316,-5.37583,40.7824,59.4823
1980-02-04 11:48:22,1,0.317647,-5.92941,-1.67647,1.44366,1,1,125949.0,227773.0,1691,0.95487326,1.4625301,140.70947,289.33057,5.18828,476.973,-68.9996,-6.11058,45.599,61.321
1980-02-04 11:49:03,1,-0.747059,-5.71176,-1.45882,2.20269,1,1,146034.0,181958.0,1691,0.95487541,1.4624672,140.70142,289.33032,5.24318,474.356,-50.276,-24.4552,49.1004,54.808
1980-02-04 11:49:43,1,-1.56111,-5.94444,-1.48889,0.798088,1,1,126959.0,162261.0,1691,0.95487541,1.4624672,140.69751,289.33032,5.10535,470.852,-61.1441,-10.5696,45.7814,51.7566
1980-02-04 11:50:24,-1,nan,nan,nan,nan,1,-3,nan,nan,1691,0.95487761,1.4624033,140.68945,289.33008,nan,472.327,19.7194,-26.5907,nan,nan
1980-02-04 11:51:04,1,-1.16471,4.80588,-3.12941,0.646417,1,1,94452.1,149025.0,1691,0.95487976,1.4623404,140.68164,289.33008,4.75234,471.741,20.9049,-33.923,39.4879,49.6006
1980-02-04 11:51:45,1,-1.17059,4.57647,-3.20588,1.60395,1,1,148304.0,186453.0,1691,0.95487976,1.4623404,140.67773,289.33008,5.74756,464.044,13.3378,-34.4549,49.4806,55.4807
1980-02-04 11:52:25,1,-1.04706,5.67059,-2.98235,0.852759,1,1,120642.0,182622.0,1691,0.95488191,1.4622765,140.66968,289.32983,5.69086,475.516,35.8238,-24.3065,44.628,54.9078
1980-02-04 11:53:06,1,-1.15294,5.55882,-3.41765,0.691471,1,1,57098.4,158757.0,1691,0.95488411,1.4622135,140.66553,289.32959,4.67317,473.743,27.6536,-21.7324,30.7022,51.1947
1980-02-04 11:53:46,-1,nan,nan,nan,nan,1,-3,nan,nan,1691,0.95488411,1.4622126,140.65771,289.32959,nan,473.933,22.4922,-22.2048,nan,nan
1980-02-04 11:54:27,1,-3.97222,-1.6,-3.12222,0.627483,1,1,84861.2,150773.0,1691,0.95488626,1.4621496,140.65356,289.32935,4.08404,452.989,-27.8984,-29.6493,37.4294,49.8906
1980-02-04 11:55:07,1,-4.4,-2.61176,-3.0,0.547596,1,1,77225.9,160454.0,1691,0.9548884,1.4620857,140.64551,289.3291,4.11374,445.005,-33.7993,-29.0899,35.7058,51.4676
1980-02-04 11:56:28,1,-4.69375,-2.80625,-2.63125,1.76941,1,1,102338.0,169737.0,1691,0.95489055,1.4620228,140.63379,289.3291,4.6864,445.446,-53.8068,-15.8408,41.1033,52.9353
1980-02-04 11:57:09,1,-4.5625,0.20625,-3.15,0.581317,1,1,84306.1,190440.0,1691,0.95489275,1.4619589,140.62573,289.32886,5.54562,441.434,-21.8697,-19.1482,37.3068,56.0709
1980-02-04 11:57:49,1,-4.10625,1.79375,-3.43125,1.24833,1,1,85834.0,191491.0,1691,0.95489275,1.4619589,140.62183,289.32886,5.93872,447.699,-17.6722,-25.4528,37.6433,56.2253
1980-02-04 11:58:30,1,-4.75294,1.56471,-3.14706,0.538163,1,1,79548.8,195340.0,1691,0.9548949,1.4618959,140.61377,289.32861,5.52749,443.252,-12.5977,-24.0723,36.2389,56.7876
1980-02-04 11:59:10,1,-5.2375,1.375,-3.43125,0.539784,1,1,131405.0,205039.0,1691,0.95489705,1.461832,140.60962,289.32837,5.16626,445.405,-14.3562,-27.8758,46.5763,58.1804
1980-02-04 11:59:51,1,-5.39375,-0.00625,-3.13125,0.433959,1,1,91616.3,206880.0,1691,0.95489705,1.461832,140.60181,289.32837,5.49829,441.98,-23.8786,-23.1732,38.8906,58.441
1980-02-04 12:00:31,1,-5.89412,0.888235,-2.71176,0.910872,1,1,98164.4,242763.0,1691,0.95489925,1.4617691,140.59399,289.32837,5.82918,434.798,-10.656,-19.8785,40.2564,63.3067
1980-02-04 12:01:12,1,-6.48235,0.223529,-2.28824,0.850361,1,1,110805.0,215066.0,1691,0.9549014,1.4617052,140.58984,289.32813,5.4235,436.188,-25.9061,-15.832,42.7699,59.5859
1980-02-04 12:01:52,1,-6.95,1.8,-2.45,0.506211,1,1,107984.0,186086.0,1691,0.9549014,1.4617052,140.58203,289.32813,5.46697,433.998,-14.2982,-16.9231,42.222,55.4261
1980-02-04 12:02:33,1,-7.10625,2.6125,-2.35625,0.542347,1,1,102641.0,189099.0,1691,0.95490354,1.4616413,140.57788,289.32788,5.2956,436.844,-10.2066,-15.2359,41.1642,55.8731
1980-02-04 12:03:13,1,-7.37059,3.07647,-1.64706,0.81487,1,1,93471.7,175534.0,1691,0.95490569,1.4615784,140.56982,289.32764,5.2071,430.414,-9.40545,-12.7303,39.2824,53.8318
1980-02-04 12:03:54,1,-7.82667,3.14,-0.92,0.562692,1,1,111819.0,174807.0,1691,0.95490569,1.4615784,140.56201,289.32764,5.34941,432.738,-12.9613,-9.79295,42.9651,53.7202
1980-02-04 12:04:34,1,-7.6,3.93333,-0.75,0.362476,1,1,114327.0,200117.0,1691,0.95490783,1.4615145,140.55786,289.32739,5.60811,433.969,-3.20093,-6.96748,43.4443,57.4778
1980-02-04 12:05:15,1,-7.29412,3.83529,-0.347059,1.13476,1,1,139279.0,175866.0,1691,0.95491004,1.4614515,140.55005,289.32739,5.13495,428.602,-18.6276,-5.33518,47.9513,53.8826
1980-02-04 12:05:55,1,-6.02353,5.21176,-0.0235294,2.08945,1,1,95266.9,240051.0,1691,0.95491004,1.4614515,140.54614,289.32739,7.09148,436.991,-0.257591,0.240994,39.6578,62.952
1980-02-04 12:06:36,1,-4.64,7.14,-0.22,0.856193,1,1,120737.0,210042.0,1691,0.95491219,1.4613876,140.53809,289.32715,6.25027,452.987,10.6334,-1.18708,44.6456,58.8859
1980-02-04 14:25:00,-1,nan,nan,nan,nan,1,4,nan,nan,1691,0.95521152,1.4525661,139.24634,289.30103,nan,nan,nan,nan,nan,nan
1980-02-04 14:27:34,-1,nan,nan,nan,nan,1,3,nan,nan,1691,0.95521581,1.4524393,139.22241,289.30054,nan,476.318,32.6064,10.2881,nan,nan
1980-02-04 14:28:15,2,-1.3325,5.3725,-0.0075,0.512305,1,1,180545.0,205058.0,1691,0.95521796,1.4523764,139.21851,289.30054,4.37974,477.741,36.541,1.64431,54.5948,58.183
1980-02-04 14:28:55,2,-1.45667,5.31333,0.433333,0.355668,1,1,118471.0,221543.0,1691,0.95521796,1.4523764,139.21069,289.30054,4.17182,484.723,32.4028,5.39943,44.2246,60.4766
1980-02-04 14:29:36,2,-1.56833,4.73833,1.61,0.864385,1,1,157341.0,228585.0,1691,0.9552201,1.4523125,139.20264,289.30029,4.48085,476.172,32.0588,6.15615,50.9658,61.4302
1980-02-04 14:30:16,2,-1.798,4.908,1.71,0.91391,1,1,105456.0,230866.0,1691,0.95522231,1.4522495,139.19849,289.30005,4.21627,479.15,31.1859,18.1889,41.7248,61.7359
1980-02-04 14:30:57,1,-1.98235,5.87647,5.03529,1.32829,1,1,140824.0,204546.0,1691,0.95522231,1.4522486,139.19067,289.30005,3.6672,481.439,33.7114,19.1967,48.2166,58.1103
1980-02-04 14:31:37,1,-2.65556,6.13889,4.05,0.954295,1,1,147207.0,206841.0,1691,0.95522445,1.4521856,139.18652,289.2998,4.53989,466.219,25.2116,-2.23077,49.2971,58.4355
1980-02-04 14:32:18,1,-2.64118,5.02941,2.44706,2.41343,1,1,195918.0,191355.0,1691,0.9552266,1.4521217,139.17847,289.29956,4.54585,458.725,19.0285,-29.7986,56.8716,56.2053
1980-02-04 14:32:57,1,-0.664706,5.43529,6.95882,1.27369,1,1,157208.0,223717.0,1691,0.9552266,1.4521217,139.17456,289.29956,4.05514,486.64,22.2071,24.5454,50.9443,60.7725
1980-02-04 14:33:38,1,-1.86111,5.67778,5.60556,1.0526,1,1,141074.0,239147.0,1691,0.95522875,1.4520588,139.16675,289.29956,4.42991,470.41,24.8199,16.4486,48.2594,62.8334
1980-02-04 14:34:18,1,-2.04118,6.01176,2.08824,0.695213,1,1,164272.0,193014.0,1691,0.95523089,1.4519949,139.15869,289.29932,4.22946,452.155,93.7241,-57.0927,52.0762,56.4485
1980-02-04 14:34:59,1,-1.47222,5.41111,1.75,2.42783,1,1,225639.0,196845.0,1691,0.95523089,1.4519949,139.15479,289.29932,4.11754,488.043,17.9213,-29.9393,61.033,57.0059
1980-02-04 14:35:40,-1,nan,nan,nan,nan,1,4,nan,nan,1691,0.95523304,1.451932,139.14673,289.29907,nan,nan,nan,nan,nan,nan
1980-02-04 14:36:21,1,-3.16667,5.47222,0.822222,0.411449,1,1,146574.0,205275.0,1691,0.95523518,1.4518681,139.14258,289.29883,3.88446,470.5,15.1544,-12.8092,49.191,58.2138
1980-02-04 14:37:01,1,-3.35,5.17222,0.688889,0.564648,1,1,158472.0,208905.0,1691,0.95523733,1.4518051,139.13477,289.29883,4.08857,466.132,9.38298,-23.444,51.1486,58.7263
1980-02-04 14:37:42,1,-2.72222,4.53889,-0.116667,1.33705,1,1,167720.0,183275.0,1691,0.95523733,1.4518051,139.12695,289.29883,3.77946,472.274,-4.05944,-42.1481,52.62,55.0059
1980-02-04 14:38:22,1,-2.04706,6.38824,1.18824,0.495726,1,1,133631.0,174175.0,1691,0.95523947,1.4517412,139.1228,289.29858,3.57958,480.883,26.1641,-19.1675,46.9691,53.6229